SCP
0 0 0 0 0 0 0 0 0 0 0 0 0 0 0 0 0 0 0 0 0 0 0 0 0 0 0 0 0 0 0 0 0 0 0 0 0 0 0 0 0 0 0
0 0 0 0 0 0 0 0 0 0 0 0 0 0 0 0 0 0 0 0 0 0 0 0 0 0 0 0 0 0 0 0 0 0 0 0 0 0 0 0 0 0 0
0 0 0 0 0 0 0 0 0 0 0 0 0 0 0 0 0 0 0 0 0 0 0 0 0 0 0 0 0 0 0 0 0 0 0 0 0 0 0 0 0 0 0
0 0 0 0 0 0 0 0 0 0 0 0 0 0 0 0 0 0 0 0 0 0 0 -0 -0 -0 0 0 0 0 0 -0 0 0 0 0 0 0 0 0 0 0 0
0 0 0 1 0 0 0 0 0 0 0 0 0 0 0 0 0 0 0 0 0 0 -0 -0 -0 -0 -0 0 0 0 -0 0 0 0 0 0 0 0 0 0 0 0 0
1 1 1 1 1 0 0 0 0 0 0 0 0 0 0 0 0 0 0 0 0 -0 -0 -0 -0 -0 -0 -0 0 0 0 0 0 0 0 0 0 0 0 0 0 0 0
1 1 1 1 1 0 0 0 0 0 0 0 0 0 0 0 0 0 0 0 0 0 -0 -0 -0 -0 -0 0 0 0 0 0 0 0 0 0 0 0 0 0 0 0 0
1 1 1 1 1 1 0 0 0 0 0 0 0 0 0 0 0 0 0 0 0 -0 -0 -0 -0 -0 -0 0 0 0 0 0 0 0 0 0 0 0 0 0 0 0 0
1 1 1 1 1 1 0 0 0 0 0 0 0 0 0 0 0 0 0 0 0 0 -0 -0 -0 -0 -0 0 0 0 0 0 0 0 0 0 0 0 0 0 0 0 0
1 1 1 1 1 1 0 0 0 0 0 0 0 0 0 0 0 0 0 0 0 0 0 -0 -0 -0 -0 0 0 0 0 0 0 0 0 0 0 0 0 0 0 0 0
1 1 1 1 1 1 0 0 0 0 0 0 0 0 0 -0 -0 -0 0 0 0 0 0 0 0 0 0 0 0 0 0 0 0 0 0 0 0 0 0 0 0 0 0
1 1 1 1 1 1 0 0 0 0 0 0 0 -0 -0 -0 -0 -0 0 0 0 0 0 0 0 0 0 0 0 0 0 0 0 0 0 0 0 0 0 0 0 0 0
1 1 1 1 1 1 0 0 0 0 0 0 -0 -0 -0 -0 -0 -0 0 0 0 0 0 0 0 0 0 0 0 0 0 0 0 0 0 0 0 0 0 0 0 0 0
1 1 1 1 1 0 0 0 0 0 0 0 -0 -0 -0 -0 -0 -0 -0 -0 0 0 0 0 0 0 0 0 0 0 0 0 0 0 0 0 0 0 0 0 0 0 0
1 1 1 1 1 0 0 0 0 0 0 -0 -0 0 0 0 0 0 0 0 0 0 0 0 0 0 0 0 0 0 0 0 0 0 0 0 0 0 0 0 0 0 0
1 1 1 1 1 1 0 0 0 0 0 0 0 0 0 0 0 0 0 0 0 0 0 0 0 0 0 0 0 0 0 0 0 0 0 0 0 0 0 0 0 0 0
1 1 1 1 1 1 1 0 0 0 0 0 0 0 0 0 0 0 0 0 0 0 0 0 0 0 0 0 0 0 0 0 0 0 0 0 0 0 0 0 0 0 0
1 1 1 1 1 1 1 1 0 0 0 0 0 0 0 0 0 0 0 0 0 0 0 0 0 0 0 0 0 0 0 0 0 0 0 0 0 0 0 0 0 0 0
1 1 1 1 1 1 1 1 1 0 0 0 0 0 0 0 0 0 0 0 0 0 0 0 0 0 0 0 0 0 0 0 0 0 0 0 0 0 0 0 0 0 0
1 1 1 1 1 1 1 1 1 1 0 0 0 0 0 0 0 0 0 0 0 0 0 0 0 0 0 0 0 0 0 0 0 0 0 0 0 0 0 0 0 0 0
1 2 2 1 1 1 1 1 1 1 0 0 0 0 0 0 0 0 0 0 0 0 0 0 0 0 0 0 0 0 0 0 0 0 0 0 0 0 0 0 0 0 0
1 2 2 1 1 1 1 1 1 1 0 0 0 0 0 0 0 0 0 0 0 0 0 0 0 0 0 0 0 0 0 0 0 0 0 0 0 0 0 0 0 0 0
1 1 1 1 1 1 1 1 1 1 0 0 0 0 0 0 0 0 0 0 0 0 0 0 0 0 0 0 0 0 0 0 0 0 0 0 0 0 0 0 0 0 0
1 1 1 1 1 1 1 1 1 0 0 0 0 0 0 0 0 0 0 0 0 0 0 0 0 0 0 0 0 0 0 0 0 0 0 0 0 0 0 0 0 0 0
1 1 1 1 1 1 0 0 0 0 0 0 0 0 0 0 0 0 0 0 0 0 0 0 0 0 0 0 0 0 -0 -0 0 0 0 0 0 0 0 0 0 0 0
1 1 1 1 0 0 0 0 0 0 0 0 0 0 0 0 0 0 0 0 0 0 0 0 0 0 0 0 0 0 -0 -0 0 0 0 0 0 0 0 0 0 0 0
Wind_Speed
10 11 18 19 19 19 19 18 18 18 18 18 18 17 17 17 17 16 16 15 15 14 14 14 13 13 14 14 14 15 15 15 15 16 16 16 15 16 16 17 15 12 17
14 14 18 19 19 19 19 18 18 17 17 17 17 16 16 16 16 16 15 15 14 14 14 13 13 13 13 13 13 14 14 14 14 15 15 14 15 15 15 15 14 10 16
17 14 17 19 19 19 19 18 17 17 17 17 16 16 16 15 15 15 15 15 14 14 14 13 13 13 12 12 12 12 12 12 13 15 14 7 10 15 15 15 16 15 15
17 13 15 20 20 20 19 18 17 17 17 16 16 15 15 15 15 15 15 14 14 14 13 13 12 12 12 11 11 10 10 10 11 12 6 5 7 14 15 15 15 15 14
15 12 16 22 21 20 19 18 17 17 17 16 16 15 15 15 14 14 14 14 14 13 13 12 11 11 10 10 9 8 7 7 9 10 6 5 6 13 15 14 14 14 14
14 12 16 21 21 20 19 18 17 17 16 16 15 15 15 14 14 14 14 13 13 13 12 11 10 10 9 8 7 7 6 8 9 6 6 5 5 12 14 14 14 13 13
14 12 15 21 21 20 19 18 18 17 16 16 15 15 14 14 14 14 13 13 12 12 11 10 9 8 7 7 7 7 7 9 7 6 6 5 6 12 14 14 13 13 12
16 13 13 20 21 20 19 19 18 17 16 16 15 15 14 14 13 13 13 12 12 11 10 9 8 7 6 5 6 6 7 9 9 8 6 5 9 12 13 13 13 12 12
15 13 10 12 15 19 19 19 18 17 16 16 15 15 14 14 13 13 12 12 11 10 10 9 7 6 4 4 4 5 6 9 6 5 7 5 10 12 13 13 13 12 12
12 12 10 9 9 10 12 18 18 17 16 16 15 15 14 13 13 12 10 10 10 10 9 8 6 4 2 1 2 4 6 8 4 4 4 6 12 13 14 13 13 12 12
13 10 10 10 9 8 8 14 14 16 15 14 12 15 12 6 6 7 9 11 10 9 8 7 6 4 2 1 1 1 4 2 3 3 3 9 13 14 14 13 13 12 12
14 12 11 11 10 9 9 8 5 6 7 6 5 6 4 4 4 6 8 11 10 9 8 6 5 3 1 1 1 0 2 3 3 3 4 11 13 14 14 13 13 13 12
14 13 12 11 10 9 6 6 4 3 4 4 5 5 4 3 3 3 3 4 4 5 3 3 2 1 1 0 0 1 2 2 2 2 5 11 12 13 14 13 13 13 13
12 12 12 11 10 9 7 6 5 4 4 4 5 6 4 3 3 3 2 3 2 2 2 1 1 1 1 1 1 2 2 2 2 2 4 11 11 13 14 14 13 13 13
11 12 11 10 10 9 7 6 6 5 5 5 4 5 6 5 4 4 3 2 3 2 3 2 2 1 1 1 1 2 2 2 4 4 3 10 12 12 13 14 14 13 13
12 11 11 11 10 9 7 5 5 5 5 4 4 5 6 5 5 4 3 3 2 2 2 2 2 1 1 0 0 1 2 2 3 4 4 6 11 12 12 13 13 14 14
11 11 11 11 10 9 8 7 6 5 5 5 4 5 6 5 5 4 4 3 2 2 3 2 2 1 1 1 0 1 1 2 3 4 4 3 5 9 11 12 12 13 13
10 11 11 11 10 9 7 6 6 6 6 5 4 4 5 6 6 5 4 3 2 3 3 3 2 2 1 1 0 1 1 1 2 3 3 3 3 4 7 11 11 11 13
10 11 11 10 10 9 8 6 6 5 5 4 4 4 5 6 6 5 4 3 3 3 3 2 2 2 1 0 1 1 1 1 2 2 3 4 4 4 3 6 9 10 12
9 9 10 10 9 9 7 6 5 5 4 4 4 4 5 5 6 5 4 4 4 3 3 2 2 1 1 0 1 1 1 1 1 1 2 2 2 4 4 4 3 5 10
9 9 10 10 8 8 6 6 5 5 4 3 3 5 5 5 6 5 4 4 4 3 3 3 2 2 1 1 2 3 3 2 1 1 1 1 1 2 3 3 3 2 3
10 10 10 10 8 7 6 5 4 5 4 4 3 4 5 6 6 5 5 4 3 3 3 3 2 2 1 1 2 2 3 4 4 2 1 0 0 0 1 3 3 3 2
10 11 11 10 9 8 7 5 5 4 3 2 3 3 4 5 5 5 6 5 4 3 3 2 3 3 1 2 1 3 3 1 2 3 2 1 1 0 0 1 2 3 3
11 10 10 10 9 8 8 8 8 6 5 5 4 3 3 5 6 6 6 5 4 3 3 3 3 2 3 1 1 1 2 3 2 1 3 3 2 1 1 1 1 1 2
11 11 10 10 9 8 8 8 8 5 4 4 4 5 4 3 5 6 6 5 5 4 4 3 3 3 2 2 1 1 2 2 2 3 1 3 3 2 2 1 0 1 1
8 9 10 9 8 8 8 8 8 8 7 7 6 5 4 3 3 4 5 5 5 4 4 3 3 3 2 2 2 1 2 2 1 2 1 1 2 3 2 1 0 1 1
Wind_Direction
150 151 144 136 130 126 122 118 115 112 110 108 106 105 105 105 106 107 108 109 108 107 105 103 101 100 101 103 103 104 105 106 107 108 109 110 113 112 112 110 107 106 108
148 150 144 138 134 131 127 124 121 119 116 113 112 111 110 110 110 111 111 111 110 108 106 104 103 102 102 103 105 105 106 107 106 106 106 109 112 113 113 111 110 112 111
143 147 144 140 137 134 131 129 127 124 122 120 118 117 116 115 114 115 114 112 111 110 108 107 106 105 104 104 104 105 107 109 110 107 104 100 109 114 114 114 113 112 112
142 145 144 142 140 137 135 134 132 130 128 126 124 122 121 120 118 117 116 114 113 112 110 110 109 107 106 104 102 103 106 111 115 114 106 104 110 116 116 116 115 115 114
141 144 147 144 142 140 139 138 137 135 133 131 130 127 126 125 123 120 119 118 116 115 113 112 110 109 106 105 103 102 107 114 118 111 104 100 106 119 120 119 119 119 118
141 144 148 145 144 143 143 142 141 140 138 137 135 132 130 130 128 126 123 122 120 118 117 115 113 110 107 103 99 93 95 115 115 112 114 115 116 124 124 123 122 121 121
141 144 147 147 147 146 146 146 145 145 143 141 140 137 135 134 132 130 128 126 125 123 122 121 119 115 108 96 83 80 85 115 120 122 125 124 129 130 129 128 126 125 124
143 144 147 149 149 149 149 149 148 148 147 146 144 142 141 139 136 135 135 134 132 130 128 127 126 122 112 94 75 71 77 112 127 131 129 131 139 137 135 134 133 132 130
143 144 146 151 152 153 152 152 152 152 152 151 149 147 146 145 143 143 143 142 140 139 138 136 135 131 119 95 76 68 78 106 122 135 142 142 146 144 142 141 140 139 137
144 146 147 148 149 151 153 155 156 156 156 156 155 154 153 153 153 151 149 150 149 149 149 147 147 144 136 101 71 76 90 110 125 141 142 158 156 153 151 150 148 148 146
151 151 150 151 151 150 153 160 158 160 161 160 159 161 158 153 153 156 160 161 160 162 161 160 161 167 182 261 306 102 105 128 140 149 157 167 164 161 159 158 157 156 155
160 160 159 157 158 158 162 154 157 160 160 159 160 161 155 156 168 169 173 172 172 172 170 173 179 191 200 315 318 34 123 145 154 165 171 174 172 168 166 166 166 166 164
162 164 165 164 165 166 158 156 158 156 157 162 167 168 162 162 173 166 163 171 174 176 168 176 179 180 151 190 246 110 139 137 161 176 180 181 180 176 174 175 176 175 174
164 168 167 167 169 168 159 162 161 161 167 172 178 172 160 158 157 158 162 164 166 162 163 159 158 162 148 148 135 138 142 140 174 168 195 192 188 184 183 184 185 185 184
167 169 168 168 167 161 156 166 164 166 169 171 166 163 157 154 156 159 161 163 170 163 162 162 161 156 139 123 126 138 138 149 168 179 201 200 196 192 192 191 192 193 192
166 165 160 162 162 156 156 159 158 163 161 154 149 152 149 148 151 148 148 152 157 159 159 156 154 149 152 147 146 155 162 161 164 182 198 207 204 199 199 198 200 201 200
166 161 156 158 158 155 154 156 153 152 147 145 147 146 147 144 144 141 137 139 149 142 125 104 97 93 101 121 203 220 189 188 177 190 193 200 208 210 206 205 207 206 206
160 157 159 158 157 151 147 144 145 145 144 149 149 145 143 138 138 133 130 134 135 119 114 112 94 81 64 71 259 260 228 213 209 207 195 195 200 210 216 216 215 212 212
159 156 158 155 160 151 145 142 140 140 142 149 147 141 139 135 136 133 129 128 119 107 109 119 97 108 91 349 274 263 256 234 239 223 207 205 203 205 208 223 221 218 219
158 155 157 158 158 147 140 132 126 129 138 143 143 143 139 133 133 128 125 125 117 109 102 99 98 84 101 265 319 344 310 276 231 212 208 205 201 203 202 211 220 229 225
156 156 153 157 160 151 143 143 142 146 150 148 154 149 141 136 135 131 131 129 124 123 128 119 100 70 27 28 47 6 350 354 30 229 211 180 199 204 189 195 200 213 233
164 158 154 160 166 159 152 151 148 144 149 151 150 145 145 143 143 140 135 139 136 123 110 96 92 88 21 47 103 76 18 1 353 357 358 155 199 160 181 190 189 202 222
170 169 165 167 167 161 150 140 127 108 101 117 142 154 160 148 142 138 144 141 140 133 134 126 115 116 88 16 78 130 127 197 316 335 352 2 345 43 337 209 192 205 203
179 172 163 164 165 162 155 150 151 152 159 175 167 166 163 150 147 147 147 142 140 136 140 142 125 123 114 70 17 43 133 155 135 348 334 339 338 353 320 278 191 191 178
177 172 165 165 167 166 162 159 157 156 163 154 150 155 158 155 156 152 147 141 142 141 145 135 123 116 119 124 110 70 60 59 87 123 322 328 338 328 312 279 228 188 171
171 168 163 166 170 171 165 163 163 165 164 158 162 165 165 159 154 153 148 146 147 146 150 151 146 134 131 124 121 116 123 115 120 123 150 291 310 306 322 326 271 209 192